Regional Weather Roundup
Issued by NWS Green Bay, WI

Home | Current Version | Previous Version | Graphics & Text | Print | Product List | Glossary Off
Versions: 1 2 3 4 5 6 7 8 9 10 11 12 13 14 15 16 17 18 19 20 21 22 23 24 25 26 27 28 29 30 31 32 33 34 35 36 37 38 39 40 41 42 43 44 45 46 47 48 49 50

000
ASUS43 KGRB 290359
RWRGRB

NORTH-CENTRAL AND NORTHEAST WISCONSIN REGIONAL WEATHER ROUNDUP
NATIONAL WEATHER SERVICE GREEN BAY WI
1000 PM CST FRI NOV 28 2014

WIZ005-009-010>012-018-019-290500-
NORTH CENTRAL WISCONSIN

CITY           SKY/WX    TMP DP  RH WIND       PRES   REMARKS
IRONWOOD       CLOUDY    18  14  86 S3        29.77F
MANITOWISH WTR NOT AVBL
ARBOR VITAE    NOT AVBL
EAGLE RIVER    NOT AVBL
LAND O LAKES   NOT AVBL
RHINELANDER    MOCLDY    14  11  87 SE3       29.79F
PHILLIPS       NOT AVBL
ANTIGO         NOT AVBL
TOMAHAWK       NOT AVBL
MERRILL        NOT AVBL
$$

WIZ013-073-290500-
NORTHEAST WISCONSIN

CITY           SKY/WX    TMP DP  RH WIND       PRES   REMARKS
IRON MOUNTAIN  MOCLDY    14  11  87 CALM      29.83F
MARINETTE      MOCLDY    21  18  86 CALM      29.91F
$$

WIZ017-030-035>037-045-290500-
CENTRAL WISCONSIN

CITY           SKY/WX    TMP DP  RH WIND       PRES   REMARKS
MEDFORD        NOT AVBL
WAUSAU         CLOUDY    18  15  88 SE8       29.81F WCI   8
MOSINEE        MOCLDY    18  18 100 SE5       29.84F
MARSHFIELD     CLOUDY    21  17  84 E6        29.82F
WISC RAPIDS    CLOUDY    23  19  85 E5        29.85F
STEVENS POINT  NOT AVBL
WAUPACA        NOT AVBL
SHAWANO        NOT AVBL
CLINTONVILLE   NOT AVBL
$$

WIZ038-039-048-051-290500-
FOX VALLEY

CITY           SKY/WX    TMP DP  RH WIND       PRES   REMARKS
NWS GREEN BAY  CLOUDY    25  23  92 N6        29.90S FOG
APPLETON       CLOUDY    27  21  80 SE5       29.89S
OSHKOSH        MIX PCPN  28  24  85 MISG      29.87F FOG
FOND DU LAC    CLOUDY    30  26  85 S7        29.87S
$$

WIZ022-050-052-290500-
EAST CENTRAL WISCONSIN

CITY           SKY/WX    TMP DP  RH WIND       PRES   REMARKS
STURGEON BAY   CLOUDY    27  21  80 CALM      29.91F
MANITOWOC      NOT AVBL
SHEBOYGAN      LGT SNOW  30  27  88 S8        29.89F FOG
$$

LMZ563-521-522-541>543-290500-
LAKESHORE

STATION/POSITION TIME  TEMP    WIND        PRES    VSBY  WAVE
                       AIR SEA DIR/SP/G                  HT/PER
                 (UTC) (F)     (DEG/KT/KT) (MB)    (MI)  (FT/S)
SHEBOYGAN LKSHOR 0300   33 36  200/ 15/ 17 1014.0F
KEWAUNEE LKSHORE 0300   29      CALM  /  2 1012.1F
NORTHPORT PIER   0300   31     190/  6/ 20 1013.9R
N MID LAKE BUOY  0300   31 42  170/ 21/ 25 1014.6F         5/ 6
SISTER BAY LKSHO 0300          200/ 11/ 14   N/A
CHAMBERS ISLAND  0300   26     210/  3/  5 1013.5S
MENOMINEE LKSHOR 0300   23     280/  2/  3 1013.9F
$$


USA.gov is the U.S. government's official web portal to all federal, state and local government web resources and services.